Location: Newark
(48.6461°N, 4.3644°W)
Time: 04:35:51
(UTC+00:00)

Transit 4A - Pass Details

Date: 28 January 2020
Orbit: 872 x 973 km, 66.8° (Epoch: 26 February)

Event Time Altitude Azimuth Distance (km) Brightness Sun altitude
Rises 15:29:34 0° 320° (NW) 3,472 10.8 12.2°
Reaches altitude 10° 15:32:11 10° 313° (NW) 2,529 10.3 11.9°
Maximum altitude 15:37:32 39° 246° (WSW) 1,286 9.8 11.2°
Drops below altitude 10° 15:42:55 10° 179° (S) 2,538 11.0 10.6°
Sets 15:45:33 0° 172° (S) 3,485 11.4 10.3°
